When you browse on this site, cookies collect data to enhance your experience and personalize the content and advertising you see.
Visit our Privacy Policy to learn more. By continuing to use the site, you agree to this use of cookies and data.
  • In France
  • List of Countries
  • For 7 days
  • Water Temperature
  • Satellite Maps
  • Weather Map
  • Weather Widgets
  • user-avatar
    Login

    Hourly Weather Solden

    Today, 21 April, Sunday

    Time Temperature Precipitation Wind Pressure Humidity
    00:00 -2°C° 0 mm 1 mps 585 mmHg 60%
    01:00 -2°C° 0 mm 1 mps 585 mmHg 61%
    02:00 -2°C° 0 mm 1 mps 584 mmHg 62%
    03:00 -2°C° 0 mm 1 mps 584 mmHg 64%
    04:00 -2°C° 0 mm 1 mps 584 mmHg 65%
    05:00 -1°C° 0 mm 1 mps 584 mmHg 63%
    06:00 0°C° 0 mm 1 mps 584 mmHg 61%
    07:00 +1°C° 0 mm 1 mps 584 mmHg 58%
    08:00 +3°C° 0 mm 1 mps 585 mmHg 52%
    09:00 +5°C° 0 mm 1 mps 586 mmHg 46%
    10:00 +7°C° 0 mm 1 mps 587 mmHg 40%
    11:00 +8°C° 0 mm 1 mps 587 mmHg 37%
    12:00 +9°C° 0 mm 1 mps 587 mmHg 34%
    13:00 +9°C° 0 mm 2 mps 587 mmHg 32%
    14:00 +9°C° 0 mm 2 mps 587 mmHg 33%
    15:00 +8°C° 0 mm 2 mps 586 mmHg 34%
    16:00 +8°C° 0 mm 2 mps 586 mmHg 36%
    17:00 +7°C° 0 mm 1 mps 584 mmHg 45%
    18:00 +4°C° 0 mm 1 mps 583 mmHg 55%
    19:00 +2°C° 0 mm 1 mps 582 mmHg 65%
    20:00 +1°C° 0 mm 1 mps 581 mmHg 70%
    21:00 0°C° 0 mm 1 mps 581 mmHg 75%
    22:00 -1°C° 0 mm 1 mps 581 mmHg 80%
    23:00 -1°C° 0 mm 1 mps 581 mmHg 82%

    Tomorrow, 22 April, Monday

    Time Temperature Precipitation Wind Pressure Humidity
    00:00 -1°C° 0 mm 1 mps 581 mmHg 84%
    01:00 -1°C° 0 mm 1 mps 581 mmHg 86%
    02:00 -1°C° 0 mm 1 mps 580 mmHg 87%
    03:00 -2°C° 0 mm 1 mps 580 mmHg 87%
    04:00 -2°C° 0 mm 1 mps 579 mmHg 88%
    05:00 -1°C° 0 mm 1 mps 580 mmHg 83%
    06:00 -1°C° 0 mm 0 mps 580 mmHg 79%
    07:00 +1°C° 0 mm 0 mps 580 mmHg 75%
    08:00 +3°C° 0 mm 1 mps 580 mmHg 63%
    09:00 +5°C° 0 mm 1 mps 581 mmHg 52%
    10:00 +6°C° 0 mm 2 mps 581 mmHg 41%
    11:00 +7°C° 0 mm 2 mps 581 mmHg 39%
    12:00 +8°C° 0 mm 2 mps 581 mmHg 37%
    13:00 +9°C° 0 mm 2 mps 581 mmHg 35%
    14:00 +9°C° 0 mm 2 mps 581 mmHg 37%
    15:00 +8°C° 0 mm 2 mps 580 mmHg 40%
    16:00 +8°C° 0 mm 2 mps 579 mmHg 42%
    17:00 +6°C° 0 mm 2 mps 578 mmHg 53%
    18:00 +4°C° 0 mm 2 mps 577 mmHg 65%
    19:00 +2°C° 0 mm 2 mps 576 mmHg 76%
    20:00 +1°C° 0 mm 2 mps 576 mmHg 82%
    21:00 -1°C° 0 mm 2 mps 575 mmHg 88%
    22:00 -1°C° 0 mm 2 mps 575 mmHg 94%
    23:00 +1°C° 0 mm 1 mps 575 mmHg 93%

    Day after tomorrow, 23 April, Tuesday

    Time Temperature Precipitation Wind Pressure Humidity
    00:00 0°C° 0 mm 1 mps 574 mmHg 92%
    01:00 0°C° 0 mm 1 mps 574 mmHg 92%
    02:00 0°C° 0.2 mm 1 mps 573 mmHg 90%
    03:00 0°C° 0.2 mm 1 mps 573 mmHg 87%
    04:00 0°C° 0.2 mm 1 mps 573 mmHg 85%
    05:00 0°C° 0.2 mm 1 mps 573 mmHg 84%
    06:00 +1°C° 0.2 mm 1 mps 573 mmHg 82%
    07:00 +1°C° 0.2 mm 1 mps 573 mmHg 80%
    08:00 +3°C° 0.2 mm 1 mps 573 mmHg 76%
    09:00 +4°C° 0.2 mm 1 mps 574 mmHg 71%
    10:00 +4°C° 0.2 mm 2 mps 575 mmHg 66%
    11:00 +5°C° 0.2 mm 2 mps 575 mmHg 66%
    12:00 +5°C° 0.2 mm 2 mps 575 mmHg 65%
    13:00 +6°C° 0.2 mm 2 mps 575 mmHg 65%
    14:00 +5°C° 0.2 mm 2 mps 575 mmHg 68%
    15:00 +5°C° 0.2 mm 2 mps 574 mmHg 70%
    16:00 +5°C° 0.2 mm 2 mps 574 mmHg 73%
    17:00 +3°C° 0.2 mm 2 mps 574 mmHg 79%
    18:00 +2°C° 0.2 mm 2 mps 573 mmHg 84%
    19:00 +2°C° 0.2 mm 1 mps 573 mmHg 90%
    20:00 +2°C° 0.4 mm 1 mps 573 mmHg 91%
    21:00 +2°C° 0.4 mm 1 mps 574 mmHg 91%
    22:00 +1°C° 0.4 mm 1 mps 574 mmHg 92%
    23:00 +1°C° 0.6 mm 1 mps 574 mmHg 92%

    24 April, Wednesday

    Time Temperature Precipitation Wind Pressure Humidity
    00:00 +1°C° 0.6 mm 1 mps 574 mmHg 92%
    01:00 +1°C° 0.6 mm 1 mps 575 mmHg 92%
    02:00 +1°C° 0.6 mm 1 mps 575 mmHg 92%
    03:00 +1°C° 0.6 mm 1 mps 575 mmHg 92%
    04:00 +1°C° 0.6 mm 1 mps 575 mmHg 92%
    05:00 +1°C° 0.4 mm 1 mps 576 mmHg 91%
    06:00 +2°C° 0.4 mm 1 mps 576 mmHg 90%
    07:00 +2°C° 0.4 mm 1 mps 576 mmHg 89%
    08:00 +2°C° 0.3 mm 2 mps 577 mmHg 86%
    09:00 +3°C° 0.3 mm 2 mps 578 mmHg 83%
    10:00 +3°C° 0.3 mm 3 mps 579 mmHg 80%
    11:00 +3°C° 0.7 mm 3 mps 579 mmHg 79%
    12:00 +3°C° 0.7 mm 3 mps 579 mmHg 77%
    13:00 +3°C° 0.7 mm 3 mps 579 mmHg 75%
    14:00 +3°C° 1.3 mm 3 mps 579 mmHg 79%
    15:00 +2°C° 1.3 mm 3 mps 579 mmHg 84%
    16:00 +2°C° 1.3 mm 3 mps 579 mmHg 88%
    17:00 +1°C° 0.5 mm 3 mps 579 mmHg 90%
    18:00 +2°C° 0.5 mm 2 mps 579 mmHg 92%
    19:00 +1°C° 0.5 mm 2 mps 580 mmHg 94%
    20:00 +1°C° 0.1 mm 2 mps 580 mmHg 95%
    21:00 -1°C° 0.1 mm 2 mps 581 mmHg 96%
    22:00 +1°C° 0.1 mm 1 mps 581 mmHg 96%
    23:00 +1°C° 0 mm 1 mps 581 mmHg 97%

    25 April, Thursday

    Time Temperature Precipitation Wind Pressure Humidity
    00:00 0°C° 0 mm 1 mps 580 mmHg 97%
    01:00 0°C° 0 mm 1 mps 580 mmHg 97%
    02:00 0°C° 0 mm 1 mps 580 mmHg 97%
    03:00 0°C° 0 mm 1 mps 580 mmHg 97%
    04:00 -1°C° 0 mm 1 mps 580 mmHg 96%
    05:00 0°C° 0 mm 1 mps 580 mmHg 94%
    06:00 -2°C° 0 mm 2 mps 580 mmHg 91%
    07:00 -1°C° 0 mm 2 mps 581 mmHg 89%
    08:00 +1°C° 0 mm 2 mps 581 mmHg 84%
    09:00 +2°C° 0 mm 2 mps 582 mmHg 80%
    10:00 +2°C° 0 mm 3 mps 582 mmHg 76%
    11:00 +3°C° 0 mm 3 mps 582 mmHg 72%
    12:00 +4°C° 0 mm 3 mps 583 mmHg 68%
    13:00 +5°C° 0 mm 3 mps 583 mmHg 64%
    14:00 +5°C° 0 mm 3 mps 583 mmHg 64%
    15:00 +5°C° 0 mm 4 mps 583 mmHg 64%
    16:00 +6°C° 0 mm 4 mps 583 mmHg 63%
    17:00 +4°C° 0.2 mm 3 mps 582 mmHg 72%
    18:00 +3°C° 0.2 mm 3 mps 582 mmHg 81%
    19:00 +3°C° 0.2 mm 2 mps 581 mmHg 90%
    20:00 +2°C° 0.3 mm 2 mps 581 mmHg 93%
    21:00 +1°C° 0.3 mm 2 mps 581 mmHg 95%
    22:00 +1°C° 0.3 mm 2 mps 581 mmHg 97%
    23:00 +1°C° 0.2 mm 2 mps 581 mmHg 97%

    26 April, Friday

    Time Temperature Precipitation Wind Pressure Humidity
    00:00 -1°C° 0.2 mm 2 mps 581 mmHg 97%
    01:00 +1°C° 0.2 mm 1 mps 581 mmHg 97%
    02:00 +1°C° 0.1 mm 1 mps 581 mmHg 97%
    03:00 +1°C° 0.1 mm 1 mps 580 mmHg 97%
    04:00 0°C° 0.1 mm 1 mps 580 mmHg 97%
    05:00 +1°C° 0.2 mm 1 mps 580 mmHg 95%
    06:00 +1°C° 0.2 mm 1 mps 580 mmHg 93%
    07:00 -1°C° 0.2 mm 2 mps 580 mmHg 91%
    08:00 +1°C° 0.4 mm 2 mps 581 mmHg 86%
    09:00 +2°C° 0.4 mm 2 mps 581 mmHg 80%
    10:00 +3°C° 0.4 mm 2 mps 582 mmHg 74%
    11:00 +3°C° 1.1 mm 2 mps 582 mmHg 75%
    12:00 +4°C° 1.1 mm 2 mps 582 mmHg 75%
    13:00 +4°C° 1.1 mm 2 mps 582 mmHg 76%
    14:00 +1°C° 1.5 mm 3 mps 581 mmHg 78%
    15:00 0°C° 1.5 mm 3 mps 581 mmHg 80%
    16:00 -3°C° 1.5 mm 4 mps 580 mmHg 82%
    17:00 -4°C° 0.4 mm 3 mps 580 mmHg 82%
    18:00 -4°C° 0.4 mm 3 mps 580 mmHg 82%
    19:00 -5°C° 0.4 mm 3 mps 580 mmHg 81%
    20:00 -5°C° 0.1 mm 3 mps 581 mmHg 82%
    21:00 -6°C° 0.1 mm 3 mps 581 mmHg 83%
    22:00 -6°C° 0.1 mm 3 mps 581 mmHg 84%
    23:00 -7°C° 0 mm 3 mps 582 mmHg 84%
    Show more